Denver Centennial, CO

11:45 PM MDT on August 20, 2017 (GMT -0600)
Centennial

Weather History for KAPA - May, 2007

Change the Weather History Date:

Saturday, May 26, 2007

  Actual Average Record
Temperature  
Mean Temperature 58 °F -  
Max Temperature 73 °F 73 °F 89 °F (2012)
Min Temperature 43 °F 44 °F 39 °F (1999)
Degree Days  
Heating Degree Days 8    
Growing Degree Days 8 (Base 50)    
Moisture  
Dew Point 41 °F    
Average Humidity 54    
Maximum Humidity 82    
Minimum Humidity 32    
Precipitation  
Precipitation 0.00 in - - ()
Sea Level Pressure  
Sea Level Pressure 30.01 in    
Wind  
Wind Speed 5 mph (SSW)    
Max Wind Speed 15 mph    
Max Gust Speed 24 mph    
Visibility 10 miles    
Events Thunderstorm    
Averages and records for this station are not official NWS values.
T = Trace of Precipitation, MM = Missing Value Source: NWS Daily Summary

Daily Weather History Graph

Daily Weather History Graph

Search for Another Location

Airport or City:

Trip Planner

Search our weather history database for the weather conditions in past years. The results will help you decide how hot, cold, wet, or windy it might be!

Date:

Astronomy

May. 26, 2007 Rise Set
Actual Time 5:37 AM MDT 8:16 PM MDT
Civil Twilight 5:05 AM MDT 8:47 PM MDT
Nautical Twilight 4:26 AM MDT 9:26 PM MDT
Astronomical Twilight 3:42 AM MDT 10:11 PM MDT
Moon 3:29 PM MDT (5/26) 2:41 AM MDT (5/26)
Length of Visible Light 15h 41m
Length of Day
14h 39m
Waxing Gibbous, 76% of the Moon is Illuminated
May 26
Waxing Gibbous
May 31
Full
Jun 8
Last Quarter
Jun 14
New
Jun 22
First Quarter

Hourly Weather History & Observations

Time (MDT) Temp. Windchill Dew Point Humidity Pressure Visibility Wind Dir Wind Speed Gust Speed Precip Events Conditions
12:53 AM 51.1 °F - 39.0 °F 63% 30.03 in 10.0 mi Variable 3.5 mph - N/A   Scattered Clouds
1:53 AM 50.0 °F - 39.0 °F 66% 30.05 in 10.0 mi NW 4.6 mph - N/A   Scattered Clouds
2:53 AM 46.0 °F - 39.0 °F 76% 30.06 in 10.0 mi Calm Calm - N/A   Scattered Clouds
3:53 AM 46.0 °F 43.9 °F 39.0 °F 76% 30.06 in 10.0 mi North 4.6 mph - N/A   Scattered Clouds
4:53 AM 44.1 °F - 37.9 °F 79% 30.06 in 10.0 mi Calm Calm - N/A   Scattered Clouds
5:53 AM 43.0 °F 41.3 °F 37.9 °F 82% 30.07 in 10.0 mi SE 3.5 mph - N/A   Scattered Clouds
6:53 AM 46.0 °F - 39.9 °F 79% 30.09 in 10.0 mi Calm Calm - N/A   Scattered Clouds
7:53 AM 48.9 °F - 37.9 °F 66% 30.07 in 10.0 mi Calm Calm - N/A   Clear
8:53 AM 51.1 °F - 39.0 °F 63% 30.06 in 10.0 mi Variable 3.5 mph - N/A   Partly Cloudy
9:53 AM 55.0 °F - 39.9 °F 57% 30.06 in 10.0 mi East 8.1 mph - N/A   Scattered Clouds
10:53 AM 60.1 °F - 41.0 °F 49% 30.03 in 10.0 mi ESE 5.8 mph - N/A   Scattered Clouds
11:53 AM 64.9 °F - 43.0 °F 45% 30.00 in 10.0 mi East 5.8 mph - N/A   Scattered Clouds
12:53 PM 69.1 °F - 44.1 °F 40% 29.96 in 10.0 mi East 11.5 mph 18.4 mph N/A   Scattered Clouds
1:53 PM 71.1 °F - 39.9 °F 32% 29.93 in 10.0 mi South 15.0 mph 21.9 mph N/A   Mostly Cloudy
2:53 PM 71.1 °F - 42.1 °F 35% 29.93 in 10.0 mi South 12.7 mph 24.2 mph N/A   Mostly Cloudy
3:53 PM 72.0 °F - 41.0 °F 33% 29.92 in 10.0 mi South 11.5 mph - N/A   Mostly Cloudy
4:43 PM 69.8 °F - 39.2 °F 33% 30.05 in 10.0 mi SW 12.7 mph - N/A Thunderstorm Thunderstorm
4:53 PM 69.1 °F - 39.0 °F 33% 29.93 in 10.0 mi WSW 9.2 mph - N/A Thunderstorm Thunderstorm
5:37 PM 68.0 °F - 41.0 °F 37% 30.06 in 10.0 mi West 8.1 mph - N/A   Mostly Cloudy
5:39 PM 68.0 °F - 41.0 °F 37% 30.06 in 10.0 mi West 6.9 mph - N/A   Mostly Cloudy
5:53 PM 68.0 °F - 42.1 °F 39% 29.94 in 10.0 mi West 9.2 mph - N/A   Mostly Cloudy
6:53 PM 68.0 °F - 45.0 °F 43% 29.95 in 10.0 mi West 4.6 mph - N/A   Mostly Cloudy
7:53 PM 64.9 °F - 45.0 °F 48% 29.96 in 10.0 mi West 4.6 mph - N/A   Mostly Cloudy
8:53 PM 61.0 °F - 45.0 °F 56% 29.99 in 10.0 mi West 5.8 mph - N/A   Mostly Cloudy
9:53 PM 61.0 °F - 45.0 °F 56% 29.99 in 10.0 mi Calm Calm - N/A   Mostly Cloudy
10:53 PM 57.9 °F - 46.0 °F 65% 29.96 in 10.0 mi SSE 13.8 mph - N/A   Mostly Cloudy
11:53 PM 53.1 °F - 46.0 °F 77% 29.97 in 10.0 mi South 11.5 mph - N/A   Scattered Clouds